Location: Rounton
(54.4000°N, 1.3500°W)
Time: 08:56:43
(UTC+01:00)

deb Agena D - Pass Details

Date: 10 June 2023
Orbit: 996 x 1023 km, 100.1° (Epoch: 29 September)

Event Time Altitude Azimuth Distance (km) Brightness Sun altitude
Exits shadow 23:26:20 - 116° (ESE) 3,475 ? -9.7°
Reaches altitude 10° 23:28:24 10° 108° (ESE) 2,776 ? -9.8°
Maximum altitude 23:33:37 29° 51° (NE) 1,745 ? -10.1°
Drops below altitude 10° 23:38:49 10° 354° (N) 2,779 ? -10.4°
Sets 23:41:36 0° 344° (NNW) 3,731 ? -10.5°
